STARLINK-1585, 46117

Orbit data source: Space-Track

STARLINK-1585, 46117 is a payload satellite owned by SpaceX/Seattle (US) in LEO that was launched on Tue, 18 Aug 2020 UTC via an FALCON 9 launch vehicle from the Air Force Eastern Test Range (AFETR). Payloads include a variety of satellites, spacecraft, and rockets equipped with specific instruments for various scientific and technological missions. These include communications satellites like Starlink; space stations such as the ISS; scientific satellites like the Hubble; Earth observation satellites from companies like Planet Labs, Umbra, and HawkEye 360; GPS; miniature CubeSats for education and research; and military/defense satellites.

Loading next visibility...
STARLINK-1585 details
Identifier
46117, 2020-057A
Orbit
LEO
Last TLE update18 hours ago
Origin
Flag of USSpaceX/Seattle (US)
ManufacturerSpaceX/Seattle
MissionOperational Commercial Communications
Bus & MotorSTARLINK, Unknown motor
Mass260 kg wet, ~248 kg dry
Launch date (UTC)
2020-08-18 (4 years ago)
Launch vehicle
FALCON 9
Launch site
Air Force Eastern Test Range (AFETR)
Object type
Payload
Rocket body
Debris
Shape & HBRBox + 1 Pan, 8.86 m
Radar Cross Section13.562 m², Large (>1 m²)

Expand to show TLE details & history

TLE from 18 hours ago
0 STARLINK-1585
1 46117U 20057A   25023.85892091  .00005681  00000-0  40014-3 0  9999
2 46117  53.0548 336.4207 0000316  22.3591 337.7412 15.06383286244574
Epoch: 2025-01-23T20:36Z
Definitive object data (Epoch: 2025-01-23T20:36:50.766Z)
Latitude-0°
Longitude-96.22123°
Altitude547.939 km
Speed7.589 km/s
True Right ascension22h 25m 40s
True Declination0° 00' 00"
Sunlit
Object was in daylight at TLE epoch
Visualization TLE readout
Latitude34.72714°
Longitude49.164°
Altitude549.828 km
Speed7.591 km/s
Apparent Right ascension06h 13m 51s
Apparent Declination0° 54' 37"
Sunlit
Object is in full shadow
Visualization observer readout
Local Sidereal Time15:59:43
Azimuth313.419° NW
Elevation-40.502°
Doppler factor1
Orbital elements
Apogee altitude547.752 km
Perigee altitude547.315 km
Semi-major axis6,925.67 km
Eccentricity0.0000316
Inclination53.0548°
RAAN336.4207°
Arg. of periapsis22.3591°
True anomaly337.73983°
Mean anomaly337.7412°
Eccentric anomaly337.74051°
Mean motion3.76574 °/min
BSTAR0.00040014
Orbital period95.6 mins
Loading maneuver chart data...
Loading historical data...
Loading historical data...
Loading historical data...
Loading historical data...
Loading historical data...
Loading historical data...
Loading historical data...

STARLINK-1585 Visibility forecast

Observer location: undefined°, undefined

Span
Click to sort rows by Start time (UTC) header in descending order
Start Az.
Max El. time (UTC)
Max El. Az.
Max El.
End time (UTC)
End Az.
5 mins2025-01-24 22:14:30.387Z177.171° S2025-01-24 22:17:30.387Z122.519° SE21.473°2025-01-24 22:19:30.387Z86.08° E
5 mins2025-01-24 23:54:30.387Z262.379° W2025-01-24 23:56:30.387Z325.359° NNW37.266°2025-01-24 23:59:30.387Z37.036° NE
5 mins2025-01-25 04:56:30.387Z345.248° N2025-01-25 04:58:30.387Z33.673° NE26.309°2025-01-25 05:01:30.387Z87.158° E
6 mins2025-01-25 06:35:30.387Z290.985° WNW2025-01-25 06:37:30.387Z247.74° W35.255°2025-01-25 06:41:30.387Z153.199° SSE
|